DECAYED

ELECTRON KICK STAGE R/B, 67230 (Decayed)

Orbit data source: Space-Track

ELECTRON KICK STAGE R/B, 67230 was space debris in LEO originally from a launch on Sun, 21 Dec 2025 UTC launched from the Rocket Lab Launch Complex (RLLC). Debris objects in space refer to the collection of defunct objects orbiting the Earth. Examples of debris include non-operational satellites, rocket bodies, and fragments generated from explosions, collisions, or faulty payload assembly.

Not visible in the next 10 days
Identifier
67230, 2025-307C
Orbit
Decayed
Country
Flag of USUS
Related business
Manufacturer
Rocket Lab
Mission
Decayed spacecraft
Bus & Motor
KICK STAGE, CURIE
Mass
~42 kg wet, ~42 kg dry
Launch date (UTC)
2025-12-21 (6 months ago)
Launch vehicle
Unknown
Launch site
Rocket Lab Launch Complex (RLLC)
Object type
Payload
Rocket body
Debris
Shape & HBR
Trunc Cone, 1.1 m
Radar Cross Section
0.760 m², Medium (>0.1 m² and < 1m²)

Expand to show TLE details & history
Last TLE update: 5 months ago

TLE from 5 months ago
0 ELECTRON KICK STAGE R/B
1 67230U 25307C   26016.09048044  .18058906  85429-5  45823-3 0  9994
2 67230  41.9939 323.2498 0017239 116.5376 243.7271 16.44299347  2486
Epoch: 2026-01-16T02:10Z
TLE epoch observation values (Epoch: 2026-01-16T02:10:17.510Z)
Latitude
0.00001°
Longitude
175.1421°
Altitude
159.037 km
Speed
7.81 km/s
True Right ascension
21h 32m 59s
True Declination
0° 00' 00"
Sunlit
Object was in daylight at epoch
Visualization orbit readout
Latitude
Unknown
Longitude
Unknown
Altitude
Unknown
Speed
Unknown
Apparent Right ascension
Unknown
Apparent Declination
Unknown
Sunlit
N/A
Visualization observer readout
Local Sidereal Time
07:21:52
Azimuth
Unknown
Elevation
Unknown
Doppler factor
Unknown
Orbital elements
Apogee altitude
167.875 km
Perigee altitude
145.345 km
Semi-major axis
6,534.747 km
Eccentricity
0.00172
Inclination
41.9939°
RAAN
323.2498°
Arg. of periapsis
116.5376°
True anomaly
243.55013°
Mean anomaly
243.7271°
Eccentric anomaly
243.6386°
Mean motion
4.10866 °/min
Orbital period
87.62 mins
BSTAR
0.00045823
Loading maneuver chart data...
Computing Atmospheric mass density...
Loading historical data...
Loading historical data...
Loading historical data...
Loading historical data...
Loading historical data...
Loading historical data...
Loading historical data...
Other satellites on launch #307 in the year 2025 (2025-12-21 UTC)

Documentation

Showing up to 5 results
|